Solden, Austria 16 day weather forecast

Slopes altitude range 1380 m - 3250m

Number of lifts: 33 Pistes: 148km

In some cases the lift and piste totals shown are for the ski domain (e.g. Three Valleys) rather than individual resort (e.g. Courchevel)

Overview

The 16 day weather forecast is fully updated 4 times every day.

    • Wed 26 JUN 2019
    • Wed 26
    • 17C 22C
    • Thu 27 JUN 2019
    • Thu 27
    • 17C 21C
    • Fri 28 JUN 2019
    • Fri 28
    • 13C 18C
    • Sat 29 JUN 2019
    • Sat 29
    • 14C 20C
    • Sun 30 JUN 2019
    • Sun 30
    • 15C 20C
    • Mon 01 JUL 2019
    • Mon 01
    • 16C 20C
    • Tue 02 JUL 2019
    • Tue 02
    • 12C 15C
    • Wed 03 JUL 2019
    • Wed 03
    • 10C 12C
    • Thu 04 JUL 2019
    • Thu 04
    • 12C 16C
    • Fri 05 JUL 2019
    • Fri 05
    • 13C 17C
    • Sat 06 JUL 2019
    • Sat 06
    • 6C 9C
    • Sun 07 JUL 2019
    • Sun 07
    • 8C 15C
    • Mon 08 JUL 2019
    • Mon 08
    • 13C 19C
    • Tue 09 JUL 2019
    • Tue 09
    • 14C 16C
    • Wed 10 JUL 2019
    • Wed 10
    • 12C 16C
    • Thu 11 JUL 2019
    • Thu 11
    • 12C 17C

Date:

Time Type 0°C level Temp Chill Snow Cloud Speed Gust Dir Press
3:00 4620m 6°C 6_2 0cm 2% 2mph 3mph 1025mB
6:00 4586m 6°C 6_2 0cm 3% 2mph 3mph 1026mB
9:00 4570m 17°C 17_6 0cm 0% 6mph 5mph 1025mB
12:00 4543m 22°C 22_8 0cm 0% 8mph 7mph 1024mB
15:00 4559m 22°C 22_9 0cm 6% 9mph 10mph 1024mB
18:00 4579m 22°C 22_6 0cm 9% 6mph 7mph 1024mB
21:00 4601m 9°C 9_1 0cm 0% 1mph 2mph 1026mB
0:00 4589m 8°C 8_3 0cm 0% 3mph 4mph 1026mB
3:00 4574m 7°C 7_3 0cm 0% 3mph 4mph 1025mB
6:00 4562m 7°C 7_4 0cm 0% 4mph 5mph 1024mB
9:00 4529m 17°C 17_8 0cm 0% 8mph 13mph 1023mB
12:00 4424m 21°C 21_12 0cm 0% 12mph 16mph 1022mB
15:00 4380m 21°C 21_15 0cm 0% 15mph 20mph 1021mB
18:00 4479m 21°C 21_10 0cm 0% 10mph 13mph 1020mB
21:00 4574m 8°C 8_4 0cm 1% 4mph 5mph 1023mB
0:00 4618m 7°C 7_4 0cm 1% 4mph 5mph 1022mB
3:00 4570m 6°C 6_4 0cm 0% 4mph 4mph 1022mB
6:00 4539m 5°C 5_5 0cm 0% 5mph 5mph 1021mB
9:00 4500m 13°C 13_8 0cm 0% 8mph 8mph 1020mB
12:00 4404m 18°C 18_10 0cm 0% 10mph 9mph 1018mB
15:00 4413m 19°C 19_12 0cm 0% 12mph 9mph 1018mB
18:00 4684m 19°C 19_8 0cm 0% 8mph 7mph 1019mB
21:00 4707m 6°C 6_2 0cm 0% 2mph 3mph 1021mB
0:00 4691m 4°C 4_2 0cm 0% 2mph 3mph 1021mB
3:00 4643m 3°C 3_2 0cm 0% 2mph 3mph 1021mB
6:00 4707m 3°C 3_1 0cm 0% 1mph 1mph 1020mB
9:00 4806m 14°C 14_6 0cm 0% 6mph 4mph 1019mB
12:00 4824m 20°C 20_6 0cm 0% 6mph 4mph 1018mB
15:00 4842m 20°C 20_7 0cm 0% 7mph 5mph 1017mB
18:00 4870m 20°C 20_5 0cm 0% 5mph 5mph 1019mB
21:00 4892m 7°C 7_1 0cm 0% 1mph 2mph 1020mB
0:00 4861m 6°C 6_2 0cm 0% 2mph 3mph 1020mB
3:00 4762m 5°C 5_2 0cm 0% 2mph 3mph 1020mB
6:00 4710m 5°C 5_3 0cm 0% 3mph 4mph 1020mB
9:00 4661m 15°C 15_7 0cm 0% 7mph 5mph 1019mB
12:00 4446m 20°C 20_8 0cm 25% 8mph 6mph 1019mB
15:00 4416m 20°C 20_10 0cm 60% 10mph 8mph 1018mB
18:00 4448m 20°C 20_7 0cm 30% 7mph 8mph 1020mB
21:00 4529m 8°C 8_1 0cm 0% 1mph 1mph 1022mB
0:00 4501m 7°C 7_4 0cm 0% 4mph 5mph 1021mB
3:00 4488m 6°C 6_4 0cm 0% 4mph 6mph 1020mB
6:00 4431m 6°C 6_5 0cm 0% 5mph 5mph 1019mB
9:00 4355m 16°C 16_5 0cm 0% 5mph 4mph 1018mB
12:00 4205m 20°C 20_6 0cm 28% 6mph 6mph 1017mB
15:00 4224m 19°C 19_4 0cm 99% 4mph 5mph 1016mB
18:00 4218m 19°C 19_3 0cm 98% 3mph 4mph 1019mB
21:00 4157m 9°C 9_12 0cm 100% 12mph 14mph 1021mB
0:00 4105m 7°C 7_1 0cm 100% 1mph 2mph 1019mB
3:00 4060m 6°C 6_2 0cm 93% 2mph 2mph 1018mB
6:00 4038m 6°C 6_2 0cm 97% 2mph 2mph 1018mB
9:00 4068m 12°C 12_3 0cm 83% 3mph 3mph 1018mB
12:00 4082m 15°C 15_3 0cm 91% 3mph 2mph 1017mB
15:00 4165m 15°C 15_8 0cm 98% 8mph 7mph 1018mB
18:00 4040m 15°C 15_4 0cm 98% 4mph 4mph 1018mB
21:00 4041m 7°C 7_3 0cm 94% 3mph 4mph 1019mB
0:00 4032m 6°C 6_6 0cm 85% 6mph 8mph 1019mB
3:00 4012m 7°C 7_7 0cm 100% 7mph 8mph 1019mB
6:00 3960m 7°C 7_1 0cm 100% 1mph 2mph 1019mB
9:00 3949m 10°C 10_4 0cm 100% 4mph 3mph 1019mB
12:00 3879m 12°C 12_3 0cm 100% 3mph 3mph 1018mB
15:00 3914m 13°C 13_2 0cm 99% 2mph 2mph 1018mB
18:00 4032m 13°C 13_2 0cm 88% 2mph 2mph 1018mB
21:00 4069m 4°C 4_5 0cm 74% 5mph 6mph 1020mB
0:00 4098m 4°C 4_4 0cm 76% 4mph 5mph 1019mB
3:00 4013m 4°C 4_2 0cm 95% 2mph 3mph 1018mB
6:00 3969m 3°C 3_1 0cm 74% 1mph 1mph 1018mB
9:00 3938m 12°C 12_4 0cm 52% 4mph 3mph 1017mB
12:00 4023m 16°C 16_3 0cm 52% 3mph 4mph 1016mB
15:00 4057m 15°C 15_2 0cm 88% 2mph 4mph 1016mB
18:00 4025m 15°C 15_1 0cm 91% 1mph 2mph 1017mB
21:00 4118m 6°C 6_1 0cm 98% 1mph 2mph 1018mB
0:00 3994m 6°C 6_5 0cm 75% 5mph 6mph 1018mB
3:00 3988m 4°C 4_3 0cm 0% 3mph 4mph 1018mB
6:00 3984m 4°C 4_2 0cm 12% 2mph 2mph 1017mB
9:00 3986m 13°C 13_3 0cm 91% 3mph 8mph 1017mB
12:00 4065m 17°C 17_2 0cm 91% 2mph 4mph 1016mB
15:00 4116m 16°C 16_3 0cm 99% 3mph 5mph 1016mB
18:00 4009m 16°C 16_7 0cm 94% 7mph 7mph 1017mB
21:00 4073m 8°C 8_6 0cm 100% 6mph 7mph 1019mB
0:00 3964m 7°C 7_5 0cm 100% 5mph 6mph 1019mB
Afternoon 0.333333mm 0.875 3596m 9°C 9_8 0cm 85% 8mph 8mph 1019mB
Morning 0mm 0 2334m -2°C -2_2 0cm 38% 2mph 3mph 1024mB
Afternoon 0mm 0 3957m 15°C 15_5 0cm 0% 5mph 5mph 1020mB
Morning 0mm 0 4330m 2°C 2_3 0cm 13% 3mph 3mph 1021mB
Afternoon 0mm 0 4223m 19°C 19_6 0cm 57% 6mph 14mph 1017mB
Morning 0.0833333mm 0.25 4242m 7°C 7_3 0cm 100% 3mph 4mph 1019mB
Afternoon 0.5625mm 1.6875 4277m 16°C 16_4 0cm 86% 4mph 4mph 1017mB
Morning 0.1875mm 0.5625 4134m 6°C 6_2 0cm 97% 2mph 3mph 1019mB
Afternoon 0.645833mm 1.875 4086m 16°C 16_9 0cm 50% 9mph 9mph 1016mB
Morning 0mm 0 4008m 5°C 5_2 0cm 77% 2mph 3mph 1017mB
Afternoon 0.166667mm 0.5 4068m 17°C 17_3 0cm 32% 3mph 4mph 1012mB
Morning 0.1875mm 0.5 3917m 7°C 7_3 0cm 91% 3mph 4mph 1010mB

16 day outlook at a glance

Forecast issued: 6/26/2019 8:34:03 AM

Chat

Your comments and questions. In a resort? Let us know what it's like!


Characters left 250

For terms and conditions see Readers Comments on the Cookie and privacy policy page.